STARLINK-36296, 68380

Orbit data source: Space-Track

STARLINK-36296, 68380 is a payload satellite owned by SpaceX/Seattle (US) in SSO that was launched on Thu, 26 Mar 2026 UTC via an FALCON 9 launch vehicle from the Air Force Western Test Range (AFWTR). Payload-class satellites include a variety of spacecraft equipped with specific instruments for various scientific and technological missions. These include communications satellites like Starlink; space stations such as the ISS; scientific satellites like the Hubble; Earth observation satellites from companies like Planet Labs, Umbra, and HawkEye 360; GPS; miniature CubeSats for education and research; and military/defense satellites.

Loading next visibility...
Identifier
68380, 2026-063A
Orbit
SSO
Country
Flag of USUS
Related business
Manufacturer
SpaceX/Seattle
Mission
Operational spacecraft
Bus & Motor
STARLINK V2MO, Unknown motor
Mass
575 kg wet, ~530 kg dry
Launch date (UTC)
2026-03-26 (2 weeks ago)
Launch vehicle
FALCON 9
Launch site
Air Force Western Test Range (AFWTR)
Object type
Payload
Rocket body
Debris
Shape & HBR
Unknown shape, 17.7 m
Radar Cross Section
RCS unknown

Expand to show TLE details & history
Last TLE update: 12 hours ago

TLE from 12 hours ago
0 STARLINK-36296
1 68380U 26063A   26102.06306564 -.01820699  00000-0 -84601-2 0  9991
2 68380  97.2845 243.6226 0001144  95.5744 264.5658 15.86483144  2902
Epoch: 2026-04-12T01:30Z
TLE epoch observation values (Epoch: 2026-04-12T01:30:48.871Z)
Latitude
0.00001°
Longitude
20.64557°
Altitude
315.408 km
Speed
7.719 km/s
True Right ascension
16h 14m 29s
True Declination
0° 00' 00"
Sunlit
Object was in full shadow at epoch
Visualization orbit readout
Latitude
Unknown
Longitude
Unknown
Altitude
Unknown
Speed
Unknown
Apparent Right ascension
Unknown
Apparent Declination
Unknown
Sunlit
N/A
Visualization observer readout
Local Sidereal Time
20:20:37
Azimuth
Unknown
Elevation
Unknown
Doppler factor
Unknown
Orbital elements
Apogee altitude
309.789 km
Perigee altitude
308.259 km
Semi-major axis
6,687.161 km
Eccentricity
0.00011
Inclination
97.2845°
RAAN
243.6226°
Arg. of periapsis
95.5744°
True anomaly
264.55275°
Mean anomaly
264.5658°
Eccentric anomaly
264.55927°
Mean motion
3.96899 °/min
Orbital period
90.7 mins
BSTAR
-0.0084601
Loading maneuver chart data...
Computing Atmospheric mass density...
Loading historical data...
Loading historical data...
Loading historical data...
Loading historical data...
Loading historical data...
Loading historical data...
Loading historical data...

Documentation

Showing up to 5 results
|